Location: Unspecified
(43.1763°N, 79.4719°W)
Time: 11:44:27
(UTC-04:00)

Cosmos 2058 - Visible Passes

Search period start: 26 April 2017 00:00
Search period end: 06 May 2017 00:00
Orbit: 563 x 586 km, 82.5° (Epoch: 24 April)

Date Brightness Start Highest point End Pass type
(mag) Time Alt. Az. Time Alt. Az. Time Alt. Az.
01 May 6.5 05:15:30 10° E 05:16:07 10° E 05:16:43 10° ENE visible
02 May 6.0 05:17:15 10° ESE 05:19:22 14° E 05:21:29 10° NE visible
03 May 5.8 05:19:49 10° SE 05:22:38 18° E 05:25:28 10° NE visible
04 May 5.4 05:22:37 10° SE 05:25:55 24° E 05:29:14 10° NE visible
05 May 4.9 05:25:35 10° SSE 05:29:13 31° E 05:32:52 10° NNE visible
